THY6834 CYQX-BIKF

Flight info

Callsign THY6834
Flight time 3h 24m
Altitude 35000
Route UMESI/M079F350 DCT 53N050W 58N040W 62N030W DCT ELREX DCT ELDIS ELDIS4N
Aircraft B738/M-SDE2E3FGHIRWXY/LB1

Departure

Time 2026-05-07 05:40
Airport Gander International Airport (CYQX)

Arrival

Time 2026-05-07 09:05
Airport Keflavik International Airport (BIKF)
Time Latitude Longitude Altitude Speed Heading
2026-05-07 05:28 48.94317 -54.57452 503 ft 0 kts 241°
2026-05-07 05:36 48.94316 -54.57455 503 ft 2 kts 241°
2026-05-07 05:36 48.94292 -54.57475 503 ft 6 kts 168°
2026-05-07 05:36 48.94225 -54.57441 503 ft 14 kts 158°
2026-05-07 05:37 48.94140 -54.57354 503 ft 14 kts 88°
2026-05-07 05:37 48.94197 -54.57176 503 ft 21 kts 59°
2026-05-07 05:37 48.94278 -54.56964 503 ft 25 kts 61°
2026-05-07 05:37 48.94360 -54.56722 503 ft 26 kts 63°
2026-05-07 05:38 48.94445 -54.56469 503 ft 25 kts 62°
2026-05-07 05:38 48.94531 -54.56227 503 ft 22 kts 61°
2026-05-07 05:38 48.94609 -54.56068 503 ft 13 kts 36°
2026-05-07 05:38 48.94693 -54.56010 503 ft 15 kts 21°
2026-05-07 05:39 48.94798 -54.55990 503 ft 8 kts 303°
2026-05-07 05:39 48.94751 -54.56028 503 ft 12 kts 172°
2026-05-07 05:39 48.94666 -54.56038 503 ft 13 kts 187°
2026-05-07 05:39 48.94542 -54.56065 503 ft 37 kts 188°
2026-05-07 05:40 48.93892 -54.56262 503 ft 145 kts 191°
2026-05-07 05:40 48.92849 -54.56594 1078 ft 150 kts 191°
2026-05-07 05:40 48.91795 -54.56936 1573 ft 169 kts 192°
2026-05-07 05:40 48.90710 -54.57290 2104 ft 153 kts 187°
2026-05-07 05:41 48.89744 -54.56990 2630 ft 150 kts 144°
2026-05-07 05:41 48.89096 -54.55615 3296 ft 180 kts 104°
2026-05-07 05:41 48.89195 -54.53786 3831 ft 179 kts 62°
2026-05-07 05:41 48.90031 -54.52404 4415 ft 182 kts 37°
2026-05-07 05:42 48.91098 -54.51305 4976 ft 189 kts 32°
2026-05-07 05:42 48.92224 -54.50227 5520 ft 202 kts 31°
2026-05-07 05:42 48.93458 -54.49054 6065 ft 218 kts 31°
2026-05-07 05:42 48.94809 -54.47771 6563 ft 239 kts 31°
2026-05-07 05:43 48.96266 -54.46385 7120 ft 257 kts 31°
2026-05-07 05:43 48.97776 -54.44948 7975 ft 261 kts 31°
2026-05-07 05:43 48.99321 -54.43478 8830 ft 265 kts 31°
2026-05-07 05:43 49.00887 -54.41985 9675 ft 268 kts 31°
2026-05-07 05:44 49.02491 -54.40456 10364 ft 279 kts 31°
2026-05-07 05:44 49.04180 -54.38844 10770 ft 298 kts 31°
2026-05-07 05:44 49.05965 -54.37139 11545 ft 303 kts 31°
2026-05-07 05:44 49.07753 -54.35430 12330 ft 308 kts 31°
2026-05-07 05:45 49.09567 -54.33694 13112 ft 312 kts 32°
2026-05-07 05:45 49.11420 -54.31920 13884 ft 316 kts 32°
2026-05-07 05:45 49.13268 -54.30149 14631 ft 320 kts 32°
2026-05-07 05:45 49.15172 -54.28322 15375 ft 324 kts 32°
2026-05-07 05:46 49.17064 -54.26505 16092 ft 328 kts 32°
2026-05-07 05:46 49.19013 -54.24632 16807 ft 332 kts 32°
2026-05-07 05:46 49.20977 -54.22742 17504 ft 336 kts 32°
2026-05-07 05:46 49.22965 -54.20828 18188 ft 340 kts 32°
2026-05-07 05:47 49.24968 -54.18897 18856 ft 344 kts 32°
2026-05-07 05:47 49.26981 -54.16955 19506 ft 347 kts 32°
2026-05-07 05:47 49.29031 -54.14975 20148 ft 351 kts 32°
2026-05-07 05:47 49.31098 -54.12977 20774 ft 355 kts 32°
2026-05-07 05:48 49.33189 -54.10953 21386 ft 359 kts 32°
2026-05-07 05:48 49.35327 -54.08882 21989 ft 363 kts 32°
2026-05-07 05:48 49.37468 -54.06806 22572 ft 367 kts 32°
2026-05-07 05:48 49.39620 -54.04717 23139 ft 371 kts 32°
2026-05-07 05:49 49.41784 -54.02614 23690 ft 374 kts 32°
2026-05-07 05:49 49.43993 -54.00465 24234 ft 378 kts 32°
2026-05-07 05:49 49.46218 -53.98298 24765 ft 382 kts 32°
2026-05-07 05:49 49.48465 -53.96107 25284 ft 385 kts 32°
2026-05-07 05:50 49.50734 -53.93892 25792 ft 389 kts 32°
2026-05-07 05:50 49.52999 -53.91680 26282 ft 392 kts 32°
2026-05-07 05:50 49.55313 -53.89416 26767 ft 396 kts 32°
2026-05-07 05:50 49.57627 -53.87150 27238 ft 399 kts 32°
2026-05-07 05:51 49.59987 -53.84836 27703 ft 403 kts 32°
2026-05-07 05:51 49.62341 -53.82525 28154 ft 406 kts 32°
2026-05-07 05:51 49.64742 -53.80166 28599 ft 410 kts 32°
2026-05-07 05:51 49.67124 -53.77822 29028 ft 413 kts 32°
2026-05-07 05:52 49.69555 -53.75428 29454 ft 416 kts 32°
2026-05-07 05:52 49.71981 -53.73035 29867 ft 419 kts 32°
2026-05-07 05:52 49.74440 -53.70607 30273 ft 423 kts 32°
2026-05-07 05:52 49.76926 -53.68148 30674 ft 426 kts 32°
2026-05-07 05:53 49.79432 -53.65668 31074 ft 429 kts 32°
2026-05-07 05:53 49.81920 -53.63202 31529 ft 430 kts 32°
2026-05-07 05:53 49.84431 -53.60710 32017 ft 430 kts 32°
2026-05-07 05:53 49.86931 -53.58226 32502 ft 430 kts 32°
2026-05-07 05:54 49.89439 -53.55730 32979 ft 429 kts 32°
2026-05-07 05:54 49.91942 -53.53238 33444 ft 429 kts 32°
2026-05-07 05:54 49.94454 -53.50732 33898 ft 429 kts 32°
2026-05-07 05:54 49.96955 -53.48235 34337 ft 428 kts 32°
2026-05-07 05:55 49.99426 -53.45764 34760 ft 428 kts 32°
2026-05-07 05:55 50.01955 -53.43233 34984 ft 433 kts 32°
2026-05-07 05:55 50.04488 -53.40694 35007 ft 442 kts 32°
2026-05-07 05:56 50.09636 -53.35523 34998 ft 442 kts 32°
2026-05-07 05:56 50.14781 -53.30343 35000 ft 442 kts 33°
2026-05-07 05:57 50.19929 -53.25146 35000 ft 442 kts 33°
2026-05-07 05:57 50.25101 -53.19910 34999 ft 442 kts 33°
2026-05-07 05:58 50.30237 -53.14698 35000 ft 442 kts 33°
2026-05-07 05:58 50.35341 -53.09506 35000 ft 442 kts 33°
2026-05-07 05:59 50.40489 -53.04253 34999 ft 442 kts 33°
2026-05-07 05:59 50.45607 -52.99018 34999 ft 442 kts 33°
2026-05-07 06:00 50.50755 -52.93739 35000 ft 442 kts 33°
2026-05-07 06:00 50.55877 -52.88472 34999 ft 442 kts 33°
2026-05-07 06:01 50.61002 -52.83187 34999 ft 442 kts 33°
2026-05-07 06:01 50.66130 -52.77887 34999 ft 442 kts 33°
2026-05-07 06:02 50.71259 -52.72571 35000 ft 442 kts 33°
2026-05-07 06:02 50.76362 -52.67268 35000 ft 442 kts 33°
2026-05-07 06:03 50.81789 -52.62794 35011 ft 442 kts 22°
2026-05-07 06:03 50.87003 -52.57851 35010 ft 442 kts 39°
2026-05-07 06:04 50.91843 -52.51890 34999 ft 442 kts 33°
2026-05-07 06:04 50.97304 -52.47449 35001 ft 442 kts 23°
2026-05-07 06:05 51.02875 -52.43444 34999 ft 442 kts 25°
2026-05-07 06:05 51.08403 -52.39270 35000 ft 442 kts 25°
2026-05-07 06:06 51.13918 -52.35088 35000 ft 442 kts 25°
2026-05-07 06:06 51.19447 -52.30847 35000 ft 442 kts 26°
2026-05-07 06:07 51.24981 -52.26557 35000 ft 442 kts 26°
2026-05-07 06:07 51.30479 -52.22250 35000 ft 442 kts 26°
2026-05-07 06:08 51.35966 -52.17905 35000 ft 442 kts 26°
2026-05-07 06:08 51.41430 -52.13534 34999 ft 442 kts 27°
2026-05-07 06:09 51.46905 -52.09109 35000 ft 442 kts 27°
2026-05-07 06:09 51.52385 -52.04633 35000 ft 442 kts 27°
2026-05-07 06:10 51.57840 -52.00133 35000 ft 442 kts 27°
2026-05-07 06:10 51.63282 -51.95598 34999 ft 442 kts 27°
2026-05-07 06:11 51.68712 -51.91026 35000 ft 442 kts 27°
2026-05-07 06:11 51.74125 -51.86423 34999 ft 442 kts 28°
2026-05-07 06:12 51.79520 -51.81789 35000 ft 442 kts 28°
2026-05-07 06:12 51.84914 -51.77111 35000 ft 442 kts 28°
2026-05-07 06:13 51.90305 -51.72390 34999 ft 442 kts 28°
2026-05-07 06:13 51.95693 -51.67625 35000 ft 442 kts 28°
2026-05-07 06:14 52.01067 -51.62825 35000 ft 442 kts 28°
2026-05-07 06:14 52.06426 -51.57993 35000 ft 442 kts 28°
2026-05-07 06:15 52.11768 -51.53130 35000 ft 442 kts 29°
2026-05-07 06:15 52.17115 -51.48215 35000 ft 442 kts 29°
2026-05-07 06:16 52.22447 -51.43269 35000 ft 442 kts 29°
2026-05-07 06:16 52.27732 -51.38319 35000 ft 442 kts 29°
2026-05-07 06:17 52.33037 -51.33305 35000 ft 442 kts 30°
2026-05-07 06:17 52.38359 -51.28227 34999 ft 442 kts 30°
2026-05-07 06:18 52.43633 -51.23149 35000 ft 442 kts 31°
2026-05-07 06:18 52.48907 -51.18023 35000 ft 442 kts 31°
2026-05-07 06:19 52.54175 -51.12857 35000 ft 442 kts 31°
2026-05-07 06:19 52.59397 -51.07690 35000 ft 442 kts 31°
2026-05-07 06:20 52.64637 -51.02457 35000 ft 442 kts 31°
2026-05-07 06:20 52.69878 -50.97176 35000 ft 442 kts 31°
2026-05-07 06:21 52.74987 -50.91698 35004 ft 442 kts 38°
2026-05-07 06:21 52.79677 -50.85063 34999 ft 442 kts 41°
2026-05-07 06:22 52.84264 -50.78393 35000 ft 442 kts 41°
2026-05-07 06:22 52.91173 -50.68305 35000 ft 442 kts 41°
2026-05-07 06:23 52.95762 -50.61582 35000 ft 442 kts 41°
2026-05-07 06:23 53.00338 -50.54857 35000 ft 442 kts 41°
2026-05-07 06:24 53.04909 -50.48119 34999 ft 442 kts 41°
2026-05-07 06:24 53.09503 -50.41327 35000 ft 442 kts 41°
2026-05-07 06:25 53.14088 -50.34528 35000 ft 442 kts 42°
2026-05-07 06:25 53.18653 -50.27739 34999 ft 442 kts 42°
2026-05-07 06:26 53.23210 -50.20941 34999 ft 442 kts 42°
2026-05-07 06:26 53.27778 -50.14108 35000 ft 442 kts 42°
2026-05-07 06:27 53.32352 -50.07244 35000 ft 442 kts 42°
2026-05-07 06:27 53.36916 -50.00375 35000 ft 442 kts 42°
2026-05-07 06:28 53.41462 -49.93511 35000 ft 442 kts 42°
2026-05-07 06:28 53.46010 -49.86624 35000 ft 442 kts 42°
2026-05-07 06:29 53.50536 -49.79750 35000 ft 442 kts 42°
2026-05-07 06:29 53.55083 -49.72824 35000 ft 442 kts 42°
2026-05-07 06:30 53.59617 -49.65897 34999 ft 442 kts 42°
2026-05-07 06:30 53.64159 -49.58935 34999 ft 442 kts 42°
2026-05-07 06:31 53.68701 -49.51953 35000 ft 442 kts 42°
2026-05-07 06:31 53.73214 -49.44994 35000 ft 442 kts 42°
2026-05-07 06:32 53.77726 -49.38015 34999 ft 442 kts 42°
2026-05-07 06:32 53.82256 -49.30987 35000 ft 442 kts 43°
2026-05-07 06:33 53.86749 -49.23995 35000 ft 442 kts 43°
2026-05-07 06:33 53.91267 -49.16944 35000 ft 442 kts 43°
2026-05-07 06:34 53.95786 -49.09868 35000 ft 442 kts 43°
2026-05-07 06:34 54.00269 -49.02827 35000 ft 442 kts 43°
2026-05-07 06:35 54.04778 -48.95723 35000 ft 442 kts 43°
2026-05-07 06:35 54.09251 -48.88656 35000 ft 442 kts 43°
2026-05-07 06:36 54.13757 -48.81512 34999 ft 442 kts 43°
2026-05-07 06:36 54.18242 -48.74381 35000 ft 442 kts 43°
2026-05-07 06:37 54.22709 -48.67256 34999 ft 442 kts 43°
2026-05-07 06:37 54.27184 -48.60095 35000 ft 442 kts 43°
2026-05-07 06:38 54.31647 -48.52932 35000 ft 442 kts 43°
2026-05-07 06:38 54.36111 -48.45744 35000 ft 442 kts 43°
2026-05-07 06:39 54.40580 -48.38526 35000 ft 442 kts 43°
2026-05-07 06:39 54.45054 -48.31278 35000 ft 442 kts 43°
2026-05-07 06:40 54.49512 -48.24032 35000 ft 442 kts 43°
2026-05-07 06:40 54.53934 -48.16822 35000 ft 442 kts 43°
2026-05-07 06:41 54.58377 -48.09555 35000 ft 442 kts 43°
2026-05-07 06:41 54.62830 -48.02248 35000 ft 442 kts 43°
2026-05-07 06:42 54.67268 -47.94944 34999 ft 442 kts 43°
2026-05-07 06:42 54.71698 -47.87628 35000 ft 442 kts 43°
2026-05-07 06:43 54.76121 -47.80302 35000 ft 442 kts 43°
2026-05-07 06:43 54.80547 -47.72946 35000 ft 442 kts 43°
2026-05-07 06:44 54.84968 -47.65577 35000 ft 442 kts 43°
2026-05-07 06:44 54.89377 -47.58203 35000 ft 442 kts 43°
2026-05-07 06:45 54.93790 -47.50798 34999 ft 442 kts 43°
2026-05-07 06:45 54.98188 -47.43396 34999 ft 442 kts 43°
2026-05-07 06:46 55.02576 -47.35987 35000 ft 442 kts 43°
2026-05-07 06:46 55.06970 -47.28543 35000 ft 442 kts 44°
2026-05-07 06:47 55.11370 -47.21065 35000 ft 442 kts 44°
2026-05-07 06:47 55.15768 -47.13566 35000 ft 442 kts 44°
2026-05-07 06:48 55.20151 -47.06069 35000 ft 442 kts 44°
2026-05-07 06:48 55.24537 -46.98542 34999 ft 442 kts 44°
2026-05-07 06:49 55.28916 -46.91001 35000 ft 442 kts 44°
2026-05-07 06:49 55.33265 -46.83490 35000 ft 442 kts 44°
2026-05-07 06:50 55.37653 -46.75885 35000 ft 442 kts 44°
2026-05-07 06:50 55.41996 -46.68333 34999 ft 442 kts 44°
2026-05-07 06:51 55.46365 -46.60711 35000 ft 442 kts 44°
2026-05-07 06:51 55.50692 -46.53139 35000 ft 442 kts 44°
2026-05-07 06:52 55.55046 -46.45493 35000 ft 442 kts 44°
2026-05-07 06:52 55.59395 -46.37830 35000 ft 442 kts 44°
2026-05-07 06:53 55.63712 -46.30199 35000 ft 442 kts 45°
2026-05-07 06:53 55.68062 -46.22485 34999 ft 442 kts 45°
2026-05-07 06:54 55.72386 -46.14790 35000 ft 442 kts 45°
2026-05-07 06:54 55.76688 -46.07109 35000 ft 442 kts 45°
2026-05-07 06:55 55.80995 -45.99395 35000 ft 442 kts 45°
2026-05-07 06:55 55.85322 -45.91618 35000 ft 442 kts 45°
2026-05-07 06:56 55.89614 -45.83878 35000 ft 442 kts 45°
2026-05-07 06:56 55.93933 -45.76063 34999 ft 442 kts 45°
2026-05-07 06:57 55.98237 -45.68250 35000 ft 442 kts 45°
2026-05-07 06:57 56.02522 -45.60445 35000 ft 442 kts 45°
2026-05-07 06:58 56.06829 -45.52573 35000 ft 442 kts 45°
2026-05-07 06:58 56.11113 -45.44717 34999 ft 442 kts 45°
2026-05-07 06:59 56.15404 -45.36820 35000 ft 442 kts 45°
2026-05-07 06:59 56.19669 -45.28945 34999 ft 442 kts 46°
2026-05-07 07:00 56.23950 -45.21011 34999 ft 442 kts 46°
2026-05-07 07:00 56.28208 -45.13096 35000 ft 442 kts 46°
2026-05-07 07:01 56.32455 -45.05173 34999 ft 442 kts 46°
2026-05-07 07:01 56.36703 -44.97220 35000 ft 442 kts 46°
2026-05-07 07:02 56.40944 -44.89254 34999 ft 442 kts 46°
2026-05-07 07:02 56.45200 -44.81231 34999 ft 442 kts 46°
2026-05-07 07:03 56.49454 -44.73186 35000 ft 442 kts 46°
2026-05-07 07:03 56.53685 -44.65156 34999 ft 442 kts 46°
2026-05-07 07:04 56.57888 -44.57149 35000 ft 442 kts 46°
2026-05-07 07:04 56.62112 -44.49077 35000 ft 442 kts 46°
2026-05-07 07:05 56.66342 -44.40964 35000 ft 442 kts 46°
2026-05-07 07:05 56.70547 -44.32872 35000 ft 442 kts 47°
2026-05-07 07:06 56.74734 -44.24787 35000 ft 442 kts 47°
2026-05-07 07:06 56.78936 -44.16643 35000 ft 442 kts 47°
2026-05-07 07:07 56.83124 -44.08499 35000 ft 442 kts 47°
2026-05-07 07:07 56.87331 -44.00289 35000 ft 442 kts 47°
2026-05-07 07:08 56.91502 -43.92121 34999 ft 442 kts 47°
2026-05-07 07:08 56.95690 -43.83889 35000 ft 442 kts 47°
2026-05-07 07:09 56.99878 -43.75629 35000 ft 442 kts 47°
2026-05-07 07:09 57.04034 -43.67403 35000 ft 442 kts 47°
2026-05-07 07:10 57.08183 -43.59163 35000 ft 442 kts 47°
2026-05-07 07:10 57.12353 -43.50851 35000 ft 442 kts 47°
2026-05-07 07:11 57.16515 -43.42525 35000 ft 442 kts 47°
2026-05-07 07:11 57.20644 -43.34234 35000 ft 442 kts 47°
2026-05-07 07:12 57.24803 -43.25855 35000 ft 442 kts 47°
2026-05-07 07:12 57.28948 -43.17473 35000 ft 442 kts 47°
2026-05-07 07:13 57.33062 -43.09124 34999 ft 442 kts 47°
2026-05-07 07:13 57.37196 -43.00704 35000 ft 442 kts 47°
2026-05-07 07:14 57.41327 -42.92260 35000 ft 442 kts 47°
2026-05-07 07:14 57.45422 -42.83859 35000 ft 442 kts 47°
2026-05-07 07:15 57.49517 -42.75428 34999 ft 442 kts 47°
2026-05-07 07:15 57.53634 -42.66920 35000 ft 442 kts 47°
2026-05-07 07:16 57.57719 -42.58447 35000 ft 442 kts 47°
2026-05-07 07:16 57.61809 -42.49934 34999 ft 442 kts 47°
2026-05-07 07:17 57.65910 -42.41367 34999 ft 442 kts 47°
2026-05-07 07:17 57.69992 -42.32806 34999 ft 442 kts 49°
2026-05-07 07:18 57.74051 -42.24264 34999 ft 442 kts 49°
2026-05-07 07:18 57.78120 -42.15670 34999 ft 442 kts 49°
2026-05-07 07:19 57.82180 -42.07064 35000 ft 442 kts 49°
2026-05-07 07:19 57.86228 -41.98450 34999 ft 442 kts 49°
2026-05-07 07:20 57.90297 -41.89759 34999 ft 442 kts 49°
2026-05-07 07:20 57.94348 -41.81076 35000 ft 442 kts 49°
2026-05-07 07:21 57.98397 -41.72363 35000 ft 442 kts 49°
2026-05-07 07:21 58.02401 -41.63717 34999 ft 442 kts 49°
2026-05-07 07:22 58.06437 -41.54969 35000 ft 442 kts 49°
2026-05-07 07:22 58.10345 -41.46466 35000 ft 442 kts 49°
2026-05-07 07:23 58.14363 -41.37691 34999 ft 442 kts 49°
2026-05-07 07:23 58.18376 -41.28893 35000 ft 442 kts 49°
2026-05-07 07:24 58.22394 -41.20052 35000 ft 442 kts 49°
2026-05-07 07:24 58.26391 -41.11224 35000 ft 442 kts 49°
2026-05-07 07:25 58.32361 -40.97976 34999 ft 442 kts 49°
2026-05-07 07:26 58.36345 -40.89091 35000 ft 442 kts 49°
2026-05-07 07:26 58.40310 -40.80217 35000 ft 442 kts 49°
2026-05-07 07:27 58.44277 -40.71304 35000 ft 442 kts 49°
2026-05-07 07:27 58.48244 -40.62357 35000 ft 442 kts 49°
2026-05-07 07:28 58.52211 -40.53377 34999 ft 442 kts 49°
2026-05-07 07:28 58.56154 -40.44414 35000 ft 442 kts 49°
2026-05-07 07:29 58.60107 -40.35396 35000 ft 442 kts 49°
2026-05-07 07:29 58.64037 -40.26393 35000 ft 442 kts 50°
2026-05-07 07:30 58.67960 -40.17374 35000 ft 442 kts 50°
2026-05-07 07:30 58.71876 -40.08336 35000 ft 442 kts 50°
2026-05-07 07:31 58.75798 -39.99251 35000 ft 442 kts 50°
2026-05-07 07:31 58.79706 -39.90161 35000 ft 442 kts 50°
2026-05-07 07:32 58.83619 -39.81023 34999 ft 442 kts 50°
2026-05-07 07:32 58.87508 -39.71907 35000 ft 442 kts 50°
2026-05-07 07:33 58.91422 -39.62697 34999 ft 442 kts 50°
2026-05-07 07:33 58.95287 -39.53564 35000 ft 442 kts 50°
2026-05-07 07:34 58.99181 -39.44330 34999 ft 442 kts 50°
2026-05-07 07:34 59.03032 -39.35159 35000 ft 442 kts 50°
2026-05-07 07:35 59.06908 -39.25891 35000 ft 442 kts 51°
2026-05-07 07:35 59.10772 -39.16618 35000 ft 442 kts 51°
2026-05-07 07:36 59.14615 -39.07358 35000 ft 442 kts 51°
2026-05-07 07:36 59.18451 -38.98079 35000 ft 442 kts 51°
2026-05-07 07:37 59.22286 -38.88763 35000 ft 442 kts 51°
2026-05-07 07:37 59.26124 -38.79403 35000 ft 442 kts 51°
2026-05-07 07:38 59.29962 -38.70006 34999 ft 442 kts 51°
2026-05-07 07:38 59.33762 -38.60664 35000 ft 442 kts 51°
2026-05-07 07:39 59.37575 -38.51253 35000 ft 442 kts 51°
2026-05-07 07:39 59.41391 -38.41796 35000 ft 442 kts 51°
2026-05-07 07:40 59.45192 -38.32339 34999 ft 442 kts 52°
2026-05-07 07:40 59.48988 -38.22855 35000 ft 442 kts 52°
2026-05-07 07:41 59.52759 -38.13397 34999 ft 442 kts 52°
2026-05-07 07:41 59.56548 -38.03851 35000 ft 442 kts 52°
2026-05-07 07:42 59.60309 -37.94342 34999 ft 442 kts 52°
2026-05-07 07:42 59.64061 -37.84813 35000 ft 442 kts 52°
2026-05-07 07:43 59.67825 -37.75218 35000 ft 442 kts 52°
2026-05-07 07:43 59.71582 -37.65600 35000 ft 442 kts 52°
2026-05-07 07:44 59.75328 -37.55969 35000 ft 442 kts 52°
2026-05-07 07:44 59.79056 -37.46347 34999 ft 442 kts 52°
2026-05-07 07:45 59.82769 -37.36724 35000 ft 442 kts 52°
2026-05-07 07:45 59.86485 -37.27052 35000 ft 442 kts 53°
2026-05-07 07:46 59.90216 -37.17301 35000 ft 442 kts 53°
2026-05-07 07:46 59.93926 -37.07565 35000 ft 442 kts 53°
2026-05-07 07:47 59.97619 -36.97833 34999 ft 442 kts 53°
2026-05-07 07:47 60.01299 -36.88093 35000 ft 442 kts 53°
2026-05-07 07:48 60.04997 -36.78268 34999 ft 442 kts 53°
2026-05-07 07:48 60.08673 -36.68458 35000 ft 442 kts 53°
2026-05-07 07:49 60.12355 -36.58588 35000 ft 442 kts 53°
2026-05-07 07:49 60.16011 -36.48750 35000 ft 442 kts 53°
2026-05-07 07:50 60.19671 -36.38860 35000 ft 442 kts 53°
2026-05-07 07:50 60.23317 -36.28964 35000 ft 442 kts 53°
2026-05-07 07:51 60.26950 -36.19061 35000 ft 442 kts 53°
2026-05-07 07:51 60.30596 -36.09079 35000 ft 442 kts 53°
2026-05-07 07:52 60.34228 -35.99094 35000 ft 442 kts 53°
2026-05-07 07:52 60.37851 -35.89091 35000 ft 442 kts 53°
2026-05-07 07:53 60.41465 -35.79069 35000 ft 442 kts 53°
2026-05-07 07:53 60.45060 -35.69056 35000 ft 442 kts 53°
2026-05-07 07:54 60.48685 -35.58915 35000 ft 442 kts 53°
2026-05-07 07:54 60.52262 -35.48869 35000 ft 442 kts 53°
2026-05-07 07:55 60.55835 -35.38786 35000 ft 442 kts 53°
2026-05-07 07:55 60.59419 -35.28631 35000 ft 442 kts 54°
2026-05-07 07:56 60.62982 -35.18490 35000 ft 442 kts 54°
2026-05-07 07:56 60.66552 -35.08285 35000 ft 442 kts 54°
2026-05-07 07:57 60.70083 -34.98149 34999 ft 442 kts 54°
2026-05-07 07:57 60.73636 -34.87902 34999 ft 442 kts 54°
2026-05-07 07:58 60.77193 -34.77599 35000 ft 442 kts 54°
2026-05-07 07:58 60.80705 -34.67380 35000 ft 442 kts 54°
2026-05-07 07:59 60.84233 -34.57071 34999 ft 442 kts 54°
2026-05-07 07:59 60.87752 -34.46742 35000 ft 442 kts 54°
2026-05-07 08:00 60.91250 -34.36429 35000 ft 442 kts 54°
2026-05-07 08:00 60.94754 -34.26053 34999 ft 442 kts 55°
2026-05-07 08:01 60.98230 -34.15711 35000 ft 442 kts 55°
2026-05-07 08:01 61.01710 -34.05314 35000 ft 442 kts 55°
2026-05-07 08:02 61.05193 -33.94860 35000 ft 442 kts 55°
2026-05-07 08:02 61.08658 -33.84411 34999 ft 442 kts 55°
2026-05-07 08:03 61.12111 -33.73953 34999 ft 442 kts 55°
2026-05-07 08:03 61.15567 -33.63437 35000 ft 442 kts 55°
2026-05-07 08:04 61.18984 -33.52992 35000 ft 442 kts 55°
2026-05-07 08:04 61.22429 -33.42416 35000 ft 442 kts 55°
2026-05-07 08:05 61.25850 -33.31863 35000 ft 442 kts 56°
2026-05-07 08:05 61.29255 -33.21311 35000 ft 442 kts 56°
2026-05-07 08:06 61.32676 -33.10662 35000 ft 442 kts 56°
2026-05-07 08:06 61.36086 -32.99998 35000 ft 442 kts 56°
2026-05-07 08:07 61.38892 -32.91184 35000 ft 442 kts 56°
2026-05-07 08:07 61.42845 -32.78710 34999 ft 442 kts 56°
2026-05-07 08:08 61.46217 -32.68018 35000 ft 442 kts 56°
2026-05-07 08:08 61.49591 -32.57268 35000 ft 442 kts 56°
2026-05-07 08:09 61.52942 -32.46543 35000 ft 442 kts 56°
2026-05-07 08:09 61.56298 -32.35751 35000 ft 442 kts 56°
2026-05-07 08:10 61.59663 -32.24876 35000 ft 442 kts 57°
2026-05-07 08:10 61.62436 -32.15878 35000 ft 442 kts 57°
2026-05-07 08:11 61.65763 -32.05033 35000 ft 442 kts 57°
2026-05-07 08:11 61.69633 -31.92358 35000 ft 442 kts 57°
2026-05-07 08:12 61.72926 -31.81515 35000 ft 442 kts 57°
2026-05-07 08:12 61.75678 -31.72413 35000 ft 442 kts 57°
2026-05-07 08:13 61.79509 -31.59684 35000 ft 442 kts 57°
2026-05-07 08:13 61.82791 -31.48719 35000 ft 442 kts 57°
2026-05-07 08:14 61.86074 -31.37698 35000 ft 442 kts 57°
2026-05-07 08:14 61.88776 -31.28590 35000 ft 442 kts 58°
2026-05-07 08:15 61.92592 -31.15663 35000 ft 442 kts 58°
2026-05-07 08:15 61.95830 -31.04637 35000 ft 442 kts 58°
2026-05-07 08:16 61.99055 -30.93601 35000 ft 442 kts 58°
2026-05-07 08:16 62.02281 -30.82509 35000 ft 442 kts 58°
2026-05-07 08:17 62.05503 -30.71375 35000 ft 442 kts 58°
2026-05-07 08:17 62.08721 -30.60200 35000 ft 442 kts 58°
2026-05-07 08:18 62.11910 -30.49075 35000 ft 442 kts 58°
2026-05-07 08:18 62.15101 -30.37882 35000 ft 442 kts 58°
2026-05-07 08:19 62.18286 -30.26657 35000 ft 442 kts 59°
2026-05-07 08:19 62.21446 -30.15466 35000 ft 442 kts 59°
2026-05-07 08:20 62.24610 -30.04204 35000 ft 442 kts 59°
2026-05-07 08:20 62.27764 -29.92917 35000 ft 442 kts 59°
2026-05-07 08:21 62.30915 -29.81592 35000 ft 442 kts 59°
2026-05-07 08:21 62.34059 -29.70231 35000 ft 442 kts 59°
2026-05-07 08:22 62.37181 -29.58894 35000 ft 442 kts 59°
2026-05-07 08:22 62.40304 -29.47495 35000 ft 442 kts 59°
2026-05-07 08:23 62.43396 -29.36152 35000 ft 442 kts 59°
2026-05-07 08:23 62.46492 -29.24737 35000 ft 442 kts 60°
2026-05-07 08:24 62.49582 -29.13289 35000 ft 442 kts 60°
2026-05-07 08:24 62.52668 -29.01791 35000 ft 442 kts 60°
2026-05-07 08:25 62.55745 -28.90273 35000 ft 442 kts 60°
2026-05-07 08:25 62.58792 -28.78803 34999 ft 442 kts 60°
2026-05-07 08:26 62.63363 -28.61491 34999 ft 442 kts 60°
2026-05-07 08:26 62.66401 -28.49911 35000 ft 442 kts 60°
2026-05-07 08:27 62.69429 -28.38304 35000 ft 442 kts 60°
2026-05-07 08:27 62.72465 -28.26611 34999 ft 442 kts 60°
2026-05-07 08:28 62.75467 -28.14986 35000 ft 442 kts 60°
2026-05-07 08:28 62.78469 -28.03299 34999 ft 442 kts 60°
2026-05-07 08:29 62.81456 -27.91607 35000 ft 442 kts 60°
2026-05-07 08:29 62.84425 -27.79927 34999 ft 442 kts 60°
2026-05-07 08:30 62.87399 -27.68167 34999 ft 442 kts 60°
2026-05-07 08:30 62.90367 -27.56367 35000 ft 442 kts 60°
2026-05-07 08:31 62.93302 -27.44634 34999 ft 442 kts 60°
2026-05-07 08:31 62.96258 -27.32753 35000 ft 442 kts 62°
2026-05-07 08:32 62.99174 -27.20970 35000 ft 442 kts 62°
2026-05-07 08:32 63.02092 -27.09118 35000 ft 442 kts 62°
2026-05-07 08:33 63.05015 -26.97176 34999 ft 442 kts 62°
2026-05-07 08:33 63.07909 -26.85295 34999 ft 441 kts 62°
2026-05-07 08:34 63.10747 -26.73575 34999 ft 426 kts 62°
2026-05-07 08:34 63.13530 -26.62023 35001 ft 430 kts 62°
2026-05-07 08:35 63.16316 -26.50398 34999 ft 429 kts 62°
2026-05-07 08:35 63.19101 -26.38709 34889 ft 432 kts 62°
2026-05-07 08:36 63.20420 -26.33155 34255 ft 437 kts 62°
2026-05-07 08:36 63.21840 -26.27159 33390 ft 443 kts 62°
2026-05-07 08:36 63.23252 -26.21177 32612 ft 446 kts 62°
2026-05-07 08:36 63.24218 -26.17077 32214 ft 445 kts 62°
2026-05-07 08:37 63.26107 -26.09035 31385 ft 443 kts 62°
2026-05-07 08:37 63.27519 -26.03008 30763 ft 442 kts 62°
2026-05-07 08:37 63.28936 -25.96936 30145 ft 440 kts 62°
2026-05-07 08:37 63.30321 -25.90989 29538 ft 438 kts 62°
2026-05-07 08:38 63.31723 -25.84949 28922 ft 435 kts 62°
2026-05-07 08:38 63.33089 -25.79053 28321 ft 433 kts 62°
2026-05-07 08:38 63.34464 -25.73098 27713 ft 430 kts 62°
2026-05-07 08:38 63.35807 -25.67264 27110 ft 428 kts 62°
2026-05-07 08:39 63.37169 -25.61337 26505 ft 424 kts 62°
2026-05-07 08:39 63.38502 -25.55517 25914 ft 421 kts 62°
2026-05-07 08:39 63.39819 -25.49749 25340 ft 418 kts 62°
2026-05-07 08:39 63.41117 -25.44055 24774 ft 414 kts 62°
2026-05-07 08:40 63.42412 -25.38353 24208 ft 410 kts 62°
2026-05-07 08:40 63.43661 -25.32843 23658 ft 406 kts 63°
2026-05-07 08:40 63.44497 -25.29146 23284 ft 398 kts 63°
2026-05-07 08:40 63.46120 -25.21952 22574 ft 384 kts 63°
2026-05-07 08:41 63.47304 -25.16687 22054 ft 375 kts 63°
2026-05-07 08:41 63.48462 -25.11524 21544 ft 367 kts 63°
2026-05-07 08:41 63.49587 -25.06501 21048 ft 359 kts 63°
2026-05-07 08:41 63.50689 -25.01561 20561 ft 352 kts 63°
2026-05-07 08:42 63.51773 -24.96698 20081 ft 346 kts 63°
2026-05-07 08:42 63.52830 -24.91942 19618 ft 340 kts 63°
2026-05-07 08:42 63.53880 -24.87209 19161 ft 335 kts 63°
2026-05-07 08:42 63.54910 -24.82557 18712 ft 330 kts 63°
2026-05-07 08:43 63.55908 -24.78034 18275 ft 325 kts 63°
2026-05-07 08:43 63.56907 -24.73503 17837 ft 321 kts 63°
2026-05-07 08:43 63.57890 -24.69033 17406 ft 317 kts 63°
2026-05-07 08:43 63.58848 -24.64665 16986 ft 313 kts 63°
2026-05-07 08:44 63.59808 -24.60282 16575 ft 310 kts 63°
2026-05-07 08:44 63.60747 -24.55985 16174 ft 306 kts 63°
2026-05-07 08:44 63.61684 -24.51686 15773 ft 303 kts 63°
2026-05-07 08:44 63.62606 -24.47449 15379 ft 300 kts 63°
2026-05-07 08:45 63.63509 -24.43293 14991 ft 297 kts 63°
2026-05-07 08:45 63.64418 -24.39101 14601 ft 294 kts 63°
2026-05-07 08:45 63.65303 -24.35010 14220 ft 292 kts 63°
2026-05-07 08:45 63.66174 -24.30980 13847 ft 289 kts 64°
2026-05-07 08:46 63.67053 -24.26898 13480 ft 287 kts 64°
2026-05-07 08:46 63.67912 -24.22909 13120 ft 284 kts 64°
2026-05-07 08:46 63.68777 -24.18880 12757 ft 282 kts 64°
2026-05-07 08:46 63.69623 -24.14930 12402 ft 280 kts 64°
2026-05-07 08:47 63.70457 -24.11029 12050 ft 278 kts 64°
2026-05-07 08:47 63.71177 -24.07029 11736 ft 275 kts 75°
2026-05-07 08:47 63.71520 -24.02799 11351 ft 274 kts 83°
2026-05-07 08:47 63.71709 -23.98549 11019 ft 272 kts 85°
2026-05-07 08:48 63.71876 -23.94332 10766 ft 266 kts 84°
2026-05-07 08:48 63.72062 -23.90210 10548 ft 261 kts 84°
2026-05-07 08:48 63.72248 -23.86182 10333 ft 256 kts 84°
2026-05-07 08:48 63.72433 -23.82200 10119 ft 252 kts 84°
2026-05-07 08:49 63.72615 -23.78287 9899 ft 249 kts 84°
2026-05-07 08:49 63.72793 -23.74452 9620 ft 249 kts 84°
2026-05-07 08:49 63.72974 -23.70540 9342 ft 248 kts 84°
2026-05-07 08:49 63.73152 -23.66665 9068 ft 248 kts 84°
2026-05-07 08:50 63.73328 -23.62820 8796 ft 247 kts 84°
2026-05-07 08:50 63.73505 -23.58949 8523 ft 246 kts 84°
2026-05-07 08:50 63.73676 -23.55178 8307 ft 239 kts 84°
2026-05-07 08:50 63.73840 -23.51568 8013 ft 226 kts 84°
2026-05-07 08:51 63.73995 -23.48102 7756 ft 214 kts 84°
2026-05-07 08:51 63.74141 -23.44841 7545 ft 203 kts 84°
2026-05-07 08:51 63.74276 -23.41825 7343 ft 188 kts 84°
2026-05-07 08:51 63.74401 -23.39001 7153 ft 173 kts 84°
2026-05-07 08:52 63.74516 -23.36390 6969 ft 159 kts 84°
2026-05-07 08:52 63.74620 -23.34031 6810 ft 148 kts 84°
2026-05-07 08:52 63.74721 -23.31740 6666 ft 146 kts 84°
2026-05-07 08:52 63.74820 -23.29469 6520 ft 146 kts 84°
2026-05-07 08:53 63.74918 -23.27207 6370 ft 145 kts 84°
2026-05-07 08:53 63.75017 -23.24929 6218 ft 145 kts 84°
2026-05-07 08:53 63.75115 -23.22662 6067 ft 144 kts 84°
2026-05-07 08:53 63.75213 -23.20403 5918 ft 144 kts 84°
2026-05-07 08:54 63.75309 -23.18171 5781 ft 144 kts 84°
2026-05-07 08:54 63.75405 -23.15916 5641 ft 143 kts 84°
2026-05-07 08:54 63.75502 -23.13658 5499 ft 143 kts 84°
2026-05-07 08:54 63.75597 -23.11416 5359 ft 143 kts 84°
2026-05-07 08:55 63.75691 -23.09189 5118 ft 143 kts 84°
2026-05-07 08:55 63.75786 -23.06945 4865 ft 142 kts 84°
2026-05-07 08:55 63.75878 -23.04748 4617 ft 141 kts 84°
2026-05-07 08:55 63.75972 -23.02526 4365 ft 141 kts 84°
2026-05-07 08:56 63.76063 -23.00331 4115 ft 140 kts 84°
2026-05-07 08:56 63.76154 -22.98154 3866 ft 139 kts 84°
2026-05-07 08:56 63.76244 -22.95974 3615 ft 139 kts 84°
2026-05-07 08:56 63.76334 -22.93812 3366 ft 138 kts 84°
2026-05-07 08:57 63.76422 -22.91656 3116 ft 138 kts 84°
2026-05-07 08:57 63.76511 -22.89494 2865 ft 137 kts 84°
2026-05-07 08:57 63.76598 -22.87354 2615 ft 137 kts 84°
2026-05-07 08:57 63.76737 -22.85228 2408 ft 136 kts 73°
2026-05-07 08:58 63.77081 -22.83242 2215 ft 136 kts 65°
2026-05-07 08:58 63.77512 -22.81352 2014 ft 136 kts 58°
2026-05-07 08:58 63.78066 -22.79638 1820 ft 134 kts 51°
2026-05-07 08:58 63.78649 -22.78032 1826 ft 134 kts 50°
2026-05-07 08:59 63.79253 -22.76383 1790 ft 134 kts 50°
2026-05-07 08:59 63.79849 -22.74754 1796 ft 136 kts 50°
2026-05-07 08:59 63.80451 -22.73110 1760 ft 136 kts 50°
2026-05-07 08:59 63.81049 -22.71475 1699 ft 134 kts 50°
2026-05-07 09:00 63.81644 -22.69847 1698 ft 135 kts 50°
2026-05-07 09:00 63.82241 -22.68213 1706 ft 135 kts 50°
2026-05-07 09:00 63.82841 -22.66570 1696 ft 134 kts 50°
2026-05-07 09:00 63.83441 -22.64923 1700 ft 135 kts 50°
2026-05-07 09:01 63.84033 -22.63300 1700 ft 135 kts 50°
2026-05-07 09:01 63.84638 -22.61641 1699 ft 135 kts 50°
2026-05-07 09:01 63.85379 -22.60379 1658 ft 136 kts 17°
2026-05-07 09:01 63.86308 -22.60267 1546 ft 135 kts 355°
2026-05-07 09:02 63.87242 -22.60437 1416 ft 134 kts 356°
2026-05-07 09:02 63.88174 -22.60524 1292 ft 134 kts 358°
2026-05-07 09:02 63.89108 -22.60556 1166 ft 134 kts 359°
2026-05-07 09:02 63.90035 -22.60565 1042 ft 133 kts 359°
2026-05-07 09:03 63.90957 -22.60565 917 ft 133 kts 360°
2026-05-07 09:03 63.91885 -22.60563 774 ft 133 kts 360°
2026-05-07 09:03 63.92810 -22.60560 608 ft 133 kts 360°
2026-05-07 09:03 63.93733 -22.60558 432 ft 132 kts 360°
2026-05-07 09:04 63.94653 -22.60555 269 ft 131 kts 360°
2026-05-07 09:04 63.95560 -22.60554 162 ft 131 kts 359°
2026-05-07 09:04 63.96466 -22.60546 122 ft 124 kts
2026-05-07 09:04 63.97237 -22.60541 143 ft 75 kts 359°
2026-05-07 09:05 63.97443 -22.60436 149 ft 13 kts 107°
2026-05-07 09:05 63.97405 -22.60372 149 ft 3 kts 157°
2026-05-07 09:05 63.97375 -22.60332 149 ft 6 kts 138°
2026-05-07 09:05 63.97349 -22.60212 151 ft 10 kts 110°
2026-05-07 09:06 63.97319 -22.60028 154 ft 14 kts 110°
2026-05-07 09:06 63.97279 -22.59789 157 ft 18 kts 110°
2026-05-07 09:06 63.97231 -22.59498 164 ft 19 kts 104°
2026-05-07 09:06 63.97220 -22.59329 167 ft 3 kts 107°
2026-05-07 09:07 63.97214 -22.59287 168 ft 0 kts 108°